Date String (YYYY-MM-DD hh:mm:ss) UTC,Instrument flags,absolute air pressure of the measurement (hPa),sample flow rate (lpm),inlet stack bypass flow (lpm),air temperature of the measurement (°C),ambient temperature measured by the external sensor (°C),aerosol sample conditioner tube jacket temperature (°C),OPC LED temperature (°C),internal box temperature (°C),relative humidity of the measurement (%),span deviation,mass concentration of particles derived from Lorenz-Mie calculation of OPC scattering (μg/m³),mass concentration of particles derived from Lorenz-Mie calculation of OPC scattering (μg/m³),mass concentration of particles derived from Lorenz-Mie calculation of OPC scattering (μg/m³)
DateTimeUTC,F1_M11,P_M11,Q1_M11,Q2_M11,T1_M11,T2_M11,T3_M11,T4_M11,T5_M11,U1_M11,ZSPAN_M11,X0_M11,X2_M11,X1_M11
2023-12-08 13:00:00,SystemResetWarning,0821.9,5.01,000.00,021.3,020.3,000.0,029.6,022.6,12.7,0000.0,0003.79,0001.43,0000.86
2023-12-08 13:01:00,SystemResetWarning,0822.0,4.99,000.00,021.3,020.4,000.0,029.6,022.6,12.7,0000.0,0003.74,0001.40,0000.86
2023-12-08 13:02:00,SystemResetWarning,0821.9,5.00,000.00,021.3,020.4,000.0,029.6,022.6,12.7,0000.0,0003.86,0001.42,0000.85
2023-12-08 13:03:00,SystemResetWarning,0822.0,5.00,000.00,021.3,020.4,000.0,029.6,022.6,12.7,0000.0,0003.79,0001.40,0000.85
2023-12-08 13:04:00,SystemResetWarning,0821.9,5.00,000.00,021.3,020.4,000.0,029.6,022.6,12.4,0000.0,0004.18,0001.40,0000.87
2023-12-08 13:05:00,SystemResetWarning,0821.8,5.00,000.00,021.3,020.4,000.0,029.6,022.6,12.5,0000.0,0004.72,0001.42,0000.89
2023-12-08 13:06:00,SystemResetWarning,0821.8,5.00,000.00,021.3,020.4,000.0,029.6,022.6,12.4,0000.0,0005.04,0001.43,0000.90
2023-12-08 13:07:00,SystemResetWarning,0821.8,5.00,000.00,021.3,020.4,000.0,029.6,022.6,12.4,0000.0,0004.45,0001.39,0000.91
2023-12-08 13:08:00,SystemResetWarning,0821.8,5.00,000.00,021.3,020.4,000.0,029.6,022.7,12.4,0000.0,0004.39,0001.40,0000.92
2023-12-08 13:09:00,SystemResetWarning,0821.8,5.00,000.00,021.3,020.4,000.0,029.6,022.6,12.5,0000.0,0004.39,0001.43,0000.95
2023-12-08 13:10:00,SystemResetWarning,0821.8,5.00,000.00,021.3,020.4,000.0,029.6,022.6,12.5,0000.0,0004.40,0001.47,0000.97
2023-12-08 13:11:00,SystemResetWarning,0821.8,5.00,000.00,021.3,020.4,000.0,029.6,022.6,12.5,0000.0,0004.52,0001.55,0000.99
2023-12-08 13:12:00,SystemResetWarning,0821.7,5.00,000.00,021.3,020.4,000.0,029.6,022.6,12.5,0000.0,0004.74,0001.62,0001.01
2023-12-08 13:13:00,SystemResetWarning,0821.8,5.00,000.00,021.3,020.4,000.0,029.6,022.6,12.5,0000.0,0004.89,0001.61,0001.02
2023-12-08 13:14:00,SystemResetWarning,0821.8,4.99,000.00,021.3,020.4,000.0,029.6,022.6,12.5,0000.0,0005.34,0001.65,0001.03
2023-12-08 13:15:00,SystemResetWarning,0821.9,5.00,000.00,021.3,020.3,000.0,029.6,022.6,12.4,0000.0,0005.19,0001.69,0001.03
2023-12-08 13:16:00,SystemResetWarning,0821.9,5.00,000.00,021.3,020.3,000.0,029.6,022.6,12.4,0000.0,0005.19,0001.73,0001.04
2023-12-08 13:17:00,SystemResetWarning,0821.9,5.00,000.00,021.3,020.3,000.0,029.6,022.6,12.5,0000.0,0005.64,0001.78,0001.05
2023-12-08 13:18:00,SystemResetWarning,0821.8,5.00,000.00,021.3,020.3,000.0,029.6,022.5,12.4,0000.0,0006.23,0001.82,0001.07
2023-12-08 13:19:00,SystemResetWarning,0821.8,5.00,000.00,021.3,020.3,000.0,029.6,022.6,12.4,0000.0,0006.29,0001.85,0001.08
2023-12-08 13:20:00,SystemResetWarning,0821.8,5.00,000.00,021.3,020.3,000.0,029.6,022.6,12.5,0000.0,0006.56,0001.90,0001.09
2023-12-08 13:21:00,SystemResetWarning,0821.8,5.00,000.00,021.3,020.3,000.0,029.6,022.6,12.5,0000.0,0007.47,0001.94,0001.09
2023-12-08 13:22:00,SystemResetWarning,0821.8,5.01,000.00,021.3,020.3,000.0,029.6,022.6,12.5,0000.0,0007.82,0001.90,0001.10
2023-12-08 13:23:00,SystemResetWarning,0821.8,5.00,000.00,021.3,020.3,000.0,029.6,022.5,12.5,0000.0,0007.85,0001.90,0001.10
2023-12-08 13:24:00,SystemResetWarning,0821.8,5.00,000.00,021.2,020.3,000.0,029.6,022.5,12.5,0000.0,0007.78,0001.91,0001.12
2023-12-08 13:25:00,SystemResetWarning,0821.7,5.00,000.00,021.2,020.3,000.0,029.6,022.5,12.5,0000.0,0007.57,0001.91,0001.15
2023-12-08 13:26:00,SystemResetWarning,0821.7,5.00,000.00,021.2,020.2,000.0,029.6,022.5,12.5,0000.0,0007.45,0001.92,0001.16
2023-12-08 13:27:00,SystemResetWarning,0821.6,5.00,000.00,021.2,020.2,000.0,029.6,022.5,12.5,0000.0,0007.35,0001.91,0001.17
2023-12-08 13:28:00,SystemResetWarning,0821.6,5.00,000.00,021.2,020.2,000.0,029.6,022.5,12.5,0000.0,0007.10,0001.88,0001.17
2023-12-08 13:29:00,SystemResetWarning,0821.6,5.00,000.00,021.2,020.2,000.0,029.6,022.5,12.6,0000.0,0006.04,0001.89,0001.17
2023-12-08 13:30:00,SystemResetWarning,0821.6,5.00,000.00,021.2,020.2,000.0,029.6,022.4,12.6,0000.0,0006.03,0001.93,0001.17
2023-12-08 13:31:00,SystemResetWarning,0821.7,5.00,000.00,021.2,020.2,000.0,029.6,022.4,12.6,0000.0,0006.00,0001.94,0001.17
2023-12-08 13:32:00,SystemResetWarning,0821.7,5.00,000.00,021.2,020.2,000.0,029.5,022.4,12.6,0000.0,0005.45,0001.91,0001.17
2023-12-08 13:33:00,SystemResetWarning,0821.7,5.00,000.00,021.2,020.2,000.0,029.5,022.5,12.6,0000.0,0004.82,0001.88,0001.16
2023-12-08 13:34:00,SystemResetWarning,0821.7,5.00,000.00,021.2,020.2,000.0,029.5,022.5,12.6,0000.0,0005.83,0001.87,0001.17
2023-12-08 13:35:00,SystemResetWarning,0821.6,5.00,000.00,021.2,020.2,000.0,029.5,022.5,12.6,0000.0,0005.69,0001.84,0001.18
2023-12-08 13:36:00,SystemResetWarning,0821.7,5.00,000.00,021.1,020.2,000.0,029.5,022.5,12.6,0000.0,0006.21,0001.84,0001.17
2023-12-08 13:37:00,SystemResetWarning,0821.8,5.00,000.00,021.1,020.2,000.0,029.5,022.4,12.6,0000.0,0006.53,0001.81,0001.16
2023-12-08 13:38:00,SystemResetWarning,0821.8,5.00,000.00,021.1,020.2,000.0,029.5,022.4,12.6,0000.0,0006.64,0001.85,0001.17
2023-12-08 13:39:00,SystemResetWarning,0821.7,5.00,000.00,021.1,020.2,000.0,029.5,022.4,12.7,0000.0,0007.36,0001.87,0001.18
2023-12-08 13:40:00,SystemResetWarning,0821.7,5.00,000.00,021.1,020.2,000.0,029.5,022.4,12.7,0000.0,0007.12,0001.85,0001.17
2023-12-08 13:41:00,SystemResetWarning,0821.7,5.00,000.00,021.1,020.2,000.0,029.5,022.5,12.7,0000.0,0007.25,0001.85,0001.17
2023-12-08 13:42:00,SystemResetWarning,0821.7,5.00,000.00,021.1,020.2,000.0,029.5,022.5,12.7,0000.0,0007.45,0001.86,0001.18
2023-12-08 13:43:00,SystemResetWarning,0821.7,5.00,000.00,021.2,020.2,000.0,029.5,022.5,12.7,0000.0,0007.98,0001.84,0001.18
2023-12-08 13:44:00,SystemResetWarning,0821.7,5.00,000.00,021.2,020.2,000.0,029.5,022.4,12.6,0000.0,0009.27,0001.81,0001.19
2023-12-08 13:45:00,SystemResetWarning,0821.7,5.00,000.00,021.2,020.2,000.0,029.5,022.5,12.6,0000.0,0008.69,0001.87,0001.20
2023-12-08 13:46:00,SystemResetWarning,0821.7,5.00,000.00,021.2,020.2,000.0,029.5,022.5,12.5,0000.0,0008.53,0001.92,0001.18
2023-12-08 13:47:00,SystemResetWarning,0821.8,5.00,000.00,021.2,020.2,000.0,029.5,022.5,12.5,0000.0,0008.49,0001.95,0001.17
2023-12-08 13:48:00,SystemResetWarning,0821.7,5.00,000.00,021.2,020.2,000.0,029.5,022.5,12.5,0000.0,0008.70,0002.03,0001.18
2023-12-08 13:49:00,SystemResetWarning,0821.7,5.00,000.00,021.2,020.2,000.0,029.5,022.5,12.5,0000.0,0009.11,0002.01,0001.17
2023-12-08 13:50:00,SystemResetWarning,0821.7,4.99,000.00,021.1,020.2,000.0,029.5,022.4,12.6,0000.0,0009.13,0002.04,0001.16
2023-12-08 13:51:00,SystemResetWarning,0821.8,5.00,000.00,021.1,020.2,000.0,029.5,022.4,12.6,0000.0,0009.00,0002.06,0001.15
2023-12-08 13:52:00,SystemResetWarning,0821.8,5.00,000.00,021.1,020.2,000.0,029.5,022.4,12.5,0000.0,0009.18,0002.09,0001.15
2023-12-08 13:53:00,SystemResetWarning,0821.9,5.00,000.00,021.1,020.2,000.0,029.5,022.4,12.5,0000.0,0008.99,0002.10,0001.15
2023-12-08 13:54:00,SystemResetWarning,0821.9,5.00,000.00,021.1,020.2,000.0,029.5,022.4,12.5,0000.0,0008.77,0002.12,0001.15
2023-12-08 13:55:00,SystemResetWarning,0821.9,5.00,000.00,021.1,020.1,000.0,029.5,022.3,12.6,0000.0,0007.23,0002.14,0001.16
2023-12-08 13:56:00,SystemResetWarning,0821.9,4.99,000.00,021.1,020.1,000.0,029.4,022.4,12.5,0000.0,0006.98,0002.13,0001.15
2023-12-08 13:57:00,SystemResetWarning,0821.8,5.00,000.00,021.1,020.0,000.0,029.4,022.3,12.4,0000.0,0008.20,0002.11,0001.14
2023-12-08 13:58:00,SystemResetWarning,0821.8,5.00,000.00,021.1,020.0,000.0,029.4,022.3,12.3,0000.0,0008.22,0002.06,0001.15
2023-12-08 13:59:00,SystemResetWarning,0821.8,5.00,000.00,021.1,020.0,000.0,029.4,022.3,12.4,0000.0,0008.29,0002.00,0001.16
